| time (UTC) | temp C | wind direction | speed KPH | gust KPH | rain 1hr cm | rain 24hr cm | rain mn cm | humidity % | barometer mb |
| 20260505200048 | 27 | 83 | 3.2 | 17.7 | 0.00 | 0.00 | 0.00 | 72 | 1004.6 |
| 20260505193117 | 27 | 105 | 3.2 | 17.7 | 0.00 | 0.00 | 0.00 | 74 | 1004.9 |
| 20260505191657 | 26 | 76 | 1.6 | 11.3 | 0.00 | 0.00 | 0.00 | 75 | 1004.9 |
| 20260505190154 | 26 | 86 | 1.6 | 8.0 | 0.00 | 0.00 | 0.00 | 75 | 1005.0 |
| 20260505183019 | 26 | 53 | 1.6 | 19.3 | 0.00 | 0.00 | 0.00 | 76 | 1005.2 |
| 20260505181557 | 26 | 65 | 1.6 | 11.3 | 0.00 | 0.00 | 0.00 | 76 | 1005.2 |
| 20260505180111 | 25 | 116 | 3.2 | 24.1 | 0.00 | 0.00 | 0.00 | 77 | 1005.3 |
| 20260505173155 | 25 | 270 | 1.6 | 16.1 | 0.00 | 0.00 | 0.00 | 78 | 1005.5 |
| 20260505171620 | 25 | 105 | 1.6 | 14.5 | 0.00 | 0.00 | 0.00 | 78 | 1005.6 |
| 20260505170135 | 25 | 168 | 3.2 | 17.7 | 0.00 | 0.00 | 0.00 | 78 | 1005.7 |
| 20260505164538 | 24 | 57 | 4.8 | 12.9 | 0.00 | 0.00 | 0.00 | 80 | 1005.7 |
| 20260505153021 | 22 | 106 | 1.6 | 17.7 | 0.00 | 0.00 | 0.00 | 83 | 1005.5 |
| 20260505150136 | 22 | 81 | 3.2 | 11.3 | 0.00 | 0.00 | 0.00 | 83 | 1005.5 |
| 20260505140137 | 21 | 48 | 0.0 | 17.7 | 0.00 | 0.00 | 0.00 | 86 | 1005.9 |
| 20260505124623 | 20 | 95 | 0.0 | 9.7 | 0.00 | 0.00 | 0.00 | 88 | 1005.7 |
| 20260505123031 | 20 | 42 | 0.0 | 8.0 | 0.00 | 0.00 | 0.00 | 87 | 1005.5 |
| 20260505121612 | 20 | 50 | 1.6 | 12.9 | 0.00 | 0.00 | 0.00 | 87 | 1005.3 |
| 20260505114659 | 20 | 126 | 1.6 | 11.3 | 0.00 | 0.00 | 0.00 | 87 | 1004.9 |
| 20260505113131 | 20 | 78 | 0.0 | 6.4 | 0.00 | 0.00 | 0.00 | 87 | 1004.9 |
| 20260505101545 | 20 | 74 | 1.6 | 11.3 | 0.00 | 0.00 | 0.00 | 86 | 1004.8 |
| 20260505090122 | 19 | 265 | 0.0 | 4.8 | 0.00 | 0.00 | 0.00 | 87 | 1005.1 |
| 20260505081512 | 19 | 234 | 0.0 | 8.0 | 0.00 | 0.00 | 0.00 | 87 | 1005.6 |
| 20260505074628 | 19 | 116 | 0.0 | 4.8 | 0.00 | 0.00 | 0.00 | 86 | 1005.9 |
| 20260505073157 | 19 | 95 | 0.0 | 4.8 | 0.00 | 0.00 | 0.00 | 86 | 1006.1 |
| 20260505070042 | 19 | 138 | 0.0 | 4.8 | 0.00 | 0.00 | 0.00 | 85 | 1006.4 |
| 20260505064520 | 19 | 142 | 0.0 | 3.2 | 0.00 | 0.00 | 0.00 | 85 | 1006.4 |
| 20260505063046 | 19 | 74 | 0.0 | 1.6 | 0.00 | 0.00 | 0.00 | 84 | 1006.6 |
| 20260505061606 | 20 | 270 | 0.0 | 1.6 | 0.00 | 0.00 | 0.00 | 83 | 1006.8 |
| 20260505060054 | 20 | 31 | 0.0 | 0.0 | 0.00 | 0.00 | 0.00 | 83 | 1006.9 |
| 20260505054506 | 20 | 42 | 0.0 | 3.2 | 0.00 | 0.00 | 0.00 | 82 | 1006.8 |
| 20260505053047 | 20 | 178 | 0.0 | 3.2 | 0.00 | 0.00 | 0.00 | 81 | 1007.0 |
| 20260505051602 | 20 | 266 | 0.0 | 3.2 | 0.00 | 0.00 | 0.00 | 80 | 1006.9 |
| 20260505050141 | 20 | 103 | 0.0 | 4.8 | 0.00 | 0.00 | 0.00 | 79 | 1007.3 |
| 20260505041551 | 21 | 263 | 0.0 | 0.0 | 0.00 | 0.00 | 0.00 | 77 | 1007.0 |
| 20260505040034 | 21 | 196 | 0.0 | 3.2 | 0.00 | 0.00 | 0.00 | 76 | 1007.2 |
| 20260505034701 | 21 | 76 | 0.0 | 3.2 | 0.00 | 0.00 | 0.00 | 75 | 1007.2 |
| 20260505033152 | 21 | 97 | 0.0 | 0.0 | 0.00 | 0.00 | 0.00 | 74 | 1007.1 |
| 20260505020110 | 22 | 128 | 0.0 | 1.6 | 0.00 | 0.00 | 0.00 | 68 | 1006.9 |
| 20260505013120 | 22 | 124 | 0.0 | 1.6 | 0.00 | 0.00 | 0.00 | 65 | 1006.7 |
| 20260505011621 | 23 | 96 | 0.0 | 4.8 | 0.00 | 0.00 | 0.00 | 64 | 1006.6 |
| 20260505010020 | 23 | 42 | 0.0 | 4.8 | 0.00 | 0.00 | 0.00 | 62 | 1006.7 |
| 20260505004651 | 24 | 98 | 0.0 | 8.0 | 0.00 | 0.00 | 0.00 | 60 | 1006.6 |
| 20260504231548 | 26 | 96 | 0.0 | 4.8 | 0.00 | 0.00 | 0.00 | 54 | 1007.3 |
| 20260504230032 | 26 | 47 | 1.6 | 16.1 | 0.00 | 0.00 | 0.00 | 52 | 1007.3 |
| 20260504224554 | 26 | 117 | 0.0 | 4.8 | 0.00 | 0.00 | 0.00 | 52 | 1007.6 |
| 20260504213002 | 27 | 74 | 1.6 | 8.0 | 0.00 | 0.00 | 0.00 | 47 | 1008.6 |
| 20260504210156 | 27 | 78 | 0.0 | 6.4 | 0.00 | 0.00 | 0.00 | 46 | 1009.2 |
| 20260504204658 | 27 | 75 | 0.0 | 12.9 | 0.00 | 0.00 | 0.00 | 45 | 1009.4 |
| 20260504203103 | 27 | 28 | 1.6 | 12.9 | 0.00 | 0.00 | 0.00 | 45 | 1009.8 |
| 20260504201608 | 27 | 36 | 1.6 | 8.0 | 0.00 | 0.00 | 0.00 | 47 | 1009.9 |